Year,Month,Day,Hour,Minute,Value (Times are PST for temperature in C)
2020,08,17,00,00,26.00
2020,08,17,00,01,26.00
2020,08,17,00,02,26.00
2020,08,17,00,03,26.00
2020,08,17,00,04,26.10
2020,08,17,00,05,26.10
2020,08,17,00,06,26.10
2020,08,17,00,07,26.10
2020,08,17,00,08,26.10
2020,08,17,00,09,26.10
2020,08,17,00,10,26.10
2020,08,17,00,11,26.10
2020,08,17,00,12,26.10
2020,08,17,00,13,26.10
2020,08,17,00,14,26.10
2020,08,17,00,15,26.10
2020,08,17,00,16,26.10
2020,08,17,00,17,26.20
2020,08,17,00,18,26.20
2020,08,17,00,19,26.20
2020,08,17,00,20,26.20
2020,08,17,00,21,26.20
2020,08,17,00,22,26.20
2020,08,17,00,23,26.30
2020,08,17,00,24,26.30
2020,08,17,00,25,26.30
2020,08,17,00,26,26.30
2020,08,17,00,27,26.30
2020,08,17,00,28,26.30
2020,08,17,00,29,26.30
2020,08,17,00,30,26.40
2020,08,17,00,31,26.40
2020,08,17,00,32,26.30
2020,08,17,00,33,26.30
2020,08,17,00,34,26.30
2020,08,17,00,35,26.30
2020,08,17,00,36,26.30
2020,08,17,00,37,26.30
2020,08,17,00,38,26.30
2020,08,17,00,39,26.30
2020,08,17,00,40,26.30
2020,08,17,00,41,26.30
2020,08,17,00,42,26.30
2020,08,17,00,43,26.30
2020,08,17,00,44,26.30
2020,08,17,00,45,26.30
2020,08,17,00,46,26.30
2020,08,17,00,47,26.30
2020,08,17,00,48,26.30
2020,08,17,00,49,26.30
2020,08,17,00,50,26.30
2020,08,17,00,51,26.30
2020,08,17,00,52,26.30
2020,08,17,00,53,26.30
2020,08,17,00,54,26.30
2020,08,17,00,55,26.30
2020,08,17,00,56,26.30
2020,08,17,00,57,26.30
2020,08,17,00,58,26.30
2020,08,17,00,59,26.30
2020,08,17,01,00,26.30
2020,08,17,01,01,26.30
2020,08,17,01,02,26.30
2020,08,17,01,03,26.30
2020,08,17,01,04,26.20
2020,08,17,01,05,26.20
2020,08,17,01,06,26.20
2020,08,17,01,07,26.20
2020,08,17,01,08,26.20
2020,08,17,01,09,26.20
2020,08,17,01,10,26.20
2020,08,17,01,11,26.20
2020,08,17,01,12,26.10
2020,08,17,01,13,26.10
2020,08,17,01,14,26.10
2020,08,17,01,15,26.00
2020,08,17,01,16,26.00
2020,08,17,01,17,26.00
2020,08,17,01,18,26.00
2020,08,17,01,19,26.00
2020,08,17,01,20,26.00
2020,08,17,01,21,26.00
2020,08,17,01,22,26.00
2020,08,17,01,23,26.00
2020,08,17,01,24,26.00
2020,08,17,01,25,26.00
2020,08,17,01,26,26.00
2020,08,17,01,27,26.00
2020,08,17,01,28,26.00
2020,08,17,01,29,26.00
2020,08,17,01,30,26.00
2020,08,17,01,31,26.00
2020,08,17,01,32,26.00
2020,08,17,01,33,26.00
2020,08,17,01,34,26.00
2020,08,17,01,35,26.00
2020,08,17,01,36,26.00
2020,08,17,01,37,26.00
2020,08,17,01,38,26.00
2020,08,17,01,39,26.00
2020,08,17,01,40,26.00
2020,08,17,01,41,26.00
2020,08,17,01,42,26.00
2020,08,17,01,43,25.90
2020,08,17,01,44,25.90
2020,08,17,01,45,25.80
2020,08,17,01,46,25.70
2020,08,17,01,47,25.60
2020,08,17,01,48,25.40
2020,08,17,01,49,25.20
2020,08,17,01,50,25.00
2020,08,17,01,51,24.90
2020,08,17,01,52,24.70
2020,08,17,01,53,24.50
2020,08,17,01,54,24.40
2020,08,17,01,55,24.30
2020,08,17,01,56,24.20
2020,08,17,01,57,24.10
2020,08,17,01,58,23.90
2020,08,17,01,59,23.80
2020,08,17,02,00,23.70
2020,08,17,02,01,23.70
2020,08,17,02,02,23.60
2020,08,17,02,03,23.50
2020,08,17,02,04,23.40
2020,08,17,02,05,23.30
2020,08,17,02,06,23.30
2020,08,17,02,07,23.30
2020,08,17,02,08,23.20
2020,08,17,02,09,23.20
2020,08,17,02,10,23.10
2020,08,17,02,11,23.10
2020,08,17,02,12,23.10
2020,08,17,02,13,22.90
2020,08,17,02,14,22.90
2020,08,17,02,15,22.90
2020,08,17,02,16,22.90
2020,08,17,02,17,22.90
2020,08,17,02,18,22.80
2020,08,17,02,19,22.80
2020,08,17,02,20,22.80
2020,08,17,02,21,22.80
2020,08,17,02,22,22.70
2020,08,17,02,23,22.70
2020,08,17,02,24,22.70
2020,08,17,02,25,22.70
2020,08,17,02,26,22.60
2020,08,17,02,27,22.60
2020,08,17,02,28,22.60
2020,08,17,02,29,22.60
2020,08,17,02,30,22.60
2020,08,17,02,31,22.60
2020,08,17,02,32,22.60
2020,08,17,02,33,22.50
2020,08,17,02,34,22.50
2020,08,17,02,35,22.40
2020,08,17,02,36,22.40
2020,08,17,02,37,22.30
2020,08,17,02,38,22.30
2020,08,17,02,39,22.20
2020,08,17,02,40,22.20
2020,08,17,02,41,22.10
2020,08,17,02,42,22.10
2020,08,17,02,43,22.10
2020,08,17,02,44,22.00
2020,08,17,02,45,22.00
2020,08,17,02,46,22.00
2020,08,17,02,47,22.00
2020,08,17,02,48,21.90
2020,08,17,02,49,21.90
2020,08,17,02,50,21.80
2020,08,17,02,51,21.80
2020,08,17,02,52,21.90
2020,08,17,02,53,21.90
2020,08,17,02,54,22.00
2020,08,17,02,55,22.10
2020,08,17,02,56,22.10
2020,08,17,02,57,22.20
2020,08,17,02,58,22.30
2020,08,17,02,59,22.30
2020,08,17,03,00,22.40
2020,08,17,03,01,22.60
2020,08,17,03,02,22.70
2020,08,17,03,03,22.80
2020,08,17,03,04,23.00
2020,08,17,03,05,23.20
2020,08,17,03,06,23.30
2020,08,17,03,07,23.40
2020,08,17,03,08,23.60
2020,08,17,03,09,23.70
2020,08,17,03,10,23.90
2020,08,17,03,11,24.00
2020,08,17,03,12,24.10
2020,08,17,03,13,24.10
2020,08,17,03,14,24.20
2020,08,17,03,15,24.30
2020,08,17,03,16,24.40
2020,08,17,03,17,24.40
2020,08,17,03,18,24.50
2020,08,17,03,19,24.50
2020,08,17,03,20,24.60
2020,08,17,03,21,24.60
2020,08,17,03,22,24.60
2020,08,17,03,23,24.70
2020,08,17,03,24,24.70
2020,08,17,03,25,24.80
2020,08,17,03,26,24.80
2020,08,17,03,27,24.80
2020,08,17,03,28,24.90
2020,08,17,03,29,24.90
2020,08,17,03,30,24.90
2020,08,17,03,31,24.90
2020,08,17,03,32,24.90
2020,08,17,03,33,25.00
2020,08,17,03,34,25.00
2020,08,17,03,35,25.00
2020,08,17,03,36,25.00
2020,08,17,03,37,25.00
2020,08,17,03,38,25.00
2020,08,17,03,39,25.00
2020,08,17,03,40,25.00
2020,08,17,03,41,25.00
2020,08,17,03,42,25.00
2020,08,17,03,43,25.00
2020,08,17,03,44,25.00
2020,08,17,03,45,25.00
2020,08,17,03,46,25.00
2020,08,17,03,47,25.00
2020,08,17,03,48,24.90
2020,08,17,03,49,24.90
2020,08,17,03,50,24.90
2020,08,17,03,51,24.90
2020,08,17,03,52,24.90
2020,08,17,03,53,24.90
2020,08,17,03,54,24.90
2020,08,17,03,55,24.90
2020,08,17,03,56,24.90
2020,08,17,03,57,24.90
2020,08,17,03,58,24.90
2020,08,17,03,59,24.80
2020,08,17,04,00,24.80
2020,08,17,04,01,24.80
2020,08,17,04,02,24.80
2020,08,17,04,03,24.70
2020,08,17,04,04,24.70
2020,08,17,04,05,24.70
2020,08,17,04,06,24.60
2020,08,17,04,07,24.60
2020,08,17,04,08,24.60
2020,08,17,04,09,24.50
2020,08,17,04,10,24.50
2020,08,17,04,11,24.50
2020,08,17,04,12,24.50
2020,08,17,04,13,24.50
2020,08,17,04,14,24.50
2020,08,17,04,15,24.50
2020,08,17,04,16,24.50
2020,08,17,04,17,24.50
2020,08,17,04,18,24.40
2020,08,17,04,19,24.40
2020,08,17,04,20,24.30
2020,08,17,04,21,24.30
2020,08,17,04,22,24.30
2020,08,17,04,23,24.20
2020,08,17,04,24,24.20
2020,08,17,04,25,24.20
2020,08,17,04,26,24.10
2020,08,17,04,27,24.10
2020,08,17,04,28,24.10
2020,08,17,04,29,24.10
2020,08,17,04,30,24.00
2020,08,17,04,31,23.90
2020,08,17,04,32,23.80
2020,08,17,04,33,23.80
2020,08,17,04,34,23.70
2020,08,17,04,35,23.70
2020,08,17,04,36,23.60
2020,08,17,04,37,23.50
2020,08,17,04,38,23.40
2020,08,17,04,39,23.30
2020,08,17,04,40,23.30
2020,08,17,04,41,23.30
2020,08,17,04,42,23.20
2020,08,17,04,43,23.10
2020,08,17,04,44,23.00
2020,08,17,04,45,22.90
2020,08,17,04,46,22.90
2020,08,17,04,47,22.80
2020,08,17,04,48,22.80
2020,08,17,04,49,22.70
2020,08,17,04,50,22.70
2020,08,17,04,51,22.60
2020,08,17,04,52,22.50
2020,08,17,04,53,22.50
2020,08,17,04,54,22.40
2020,08,17,04,55,22.40
2020,08,17,04,56,22.40
2020,08,17,04,57,22.30
2020,08,17,04,58,22.30
2020,08,17,04,59,22.30
2020,08,17,05,00,22.30
2020,08,17,05,01,22.20
2020,08,17,05,02,22.20
2020,08,17,05,03,22.20
2020,08,17,05,04,22.20
2020,08,17,05,05,22.30
2020,08,17,05,06,22.30
2020,08,17,05,07,22.40
2020,08,17,05,08,22.40
2020,08,17,05,09,22.50
2020,08,17,05,10,22.50
2020,08,17,05,11,22.60
2020,08,17,05,12,22.60
2020,08,17,05,13,22.60
2020,08,17,05,14,22.70
2020,08,17,05,15,22.70
2020,08,17,05,16,22.80
2020,08,17,05,17,22.80
2020,08,17,05,18,22.90
2020,08,17,05,19,22.90
2020,08,17,05,20,22.90
2020,08,17,05,21,22.90
2020,08,17,05,22,22.90
2020,08,17,05,23,23.00
2020,08,17,05,24,23.10
2020,08,17,05,25,23.20
2020,08,17,05,26,23.30
2020,08,17,05,27,23.30
2020,08,17,05,28,23.30
2020,08,17,05,29,23.40
2020,08,17,05,30,23.40
2020,08,17,05,31,23.40
2020,08,17,05,32,23.40
2020,08,17,05,33,23.50
2020,08,17,05,34,23.60
2020,08,17,05,35,23.60
2020,08,17,05,36,23.50
2020,08,17,05,37,23.40
2020,08,17,05,38,23.40
2020,08,17,05,39,23.40
2020,08,17,05,40,23.40
2020,08,17,05,41,23.40
2020,08,17,05,42,23.40
2020,08,17,05,43,23.40
2020,08,17,05,44,23.40
2020,08,17,05,45,23.40
2020,08,17,05,46,23.40
2020,08,17,05,47,23.30
2020,08,17,05,48,23.30
2020,08,17,05,49,23.30
2020,08,17,05,50,23.30
2020,08,17,05,51,23.30
2020,08,17,05,52,23.30
2020,08,17,05,53,23.30
2020,08,17,05,54,23.30
2020,08,17,05,55,23.30
2020,08,17,05,56,23.30
2020,08,17,05,57,23.30
2020,08,17,05,58,23.30
2020,08,17,05,59,23.30
2020,08,17,06,00,23.30
2020,08,17,06,01,23.30
2020,08,17,06,02,23.30
2020,08,17,06,03,23.30
2020,08,17,06,04,23.30
2020,08,17,06,05,23.30
2020,08,17,06,06,23.30
2020,08,17,06,07,23.30
2020,08,17,06,08,23.30
2020,08,17,06,09,23.30
2020,08,17,06,10,23.30
2020,08,17,06,11,23.30
2020,08,17,06,12,23.20
2020,08,17,06,13,23.20
2020,08,17,06,14,23.20
2020,08,17,06,15,23.20
2020,08,17,06,16,23.20
2020,08,17,06,17,23.20
2020,08,17,06,18,23.20
2020,08,17,06,19,23.20
2020,08,17,06,20,23.10
2020,08,17,06,21,23.10
2020,08,17,06,22,23.10
2020,08,17,06,23,23.10
2020,08,17,06,24,23.10
2020,08,17,06,25,23.10
2020,08,17,06,26,23.10
2020,08,17,06,27,23.00
2020,08,17,06,28,22.90
2020,08,17,06,29,22.90
2020,08,17,06,30,22.90
2020,08,17,06,31,22.90
2020,08,17,06,32,22.90
2020,08,17,06,33,22.90
2020,08,17,06,34,22.90
2020,08,17,06,35,22.90
2020,08,17,06,36,22.90
2020,08,17,06,37,22.90
2020,08,17,06,38,22.90
2020,08,17,06,39,22.90
2020,08,17,06,40,22.90
2020,08,17,06,41,22.90
2020,08,17,06,42,22.80
2020,08,17,06,43,22.80
2020,08,17,06,44,22.80
2020,08,17,06,45,22.80
2020,08,17,06,46,22.80
2020,08,17,06,47,22.80
2020,08,17,06,48,22.70
2020,08,17,06,49,22.70
2020,08,17,06,50,22.70
2020,08,17,06,51,22.70
2020,08,17,06,52,22.70
2020,08,17,06,53,22.60
2020,08,17,06,54,22.60
2020,08,17,06,55,22.60
2020,08,17,06,56,22.50
2020,08,17,06,57,22.50
2020,08,17,06,58,22.40
2020,08,17,06,59,22.40
2020,08,17,07,00,22.40
2020,08,17,07,01,22.30
2020,08,17,07,02,22.30
2020,08,17,07,03,22.30
2020,08,17,07,04,22.30
2020,08,17,07,05,22.20
2020,08,17,07,06,22.20
2020,08,17,07,07,22.20
2020,08,17,07,08,22.10
2020,08,17,07,09,22.10
2020,08,17,07,10,22.10
2020,08,17,07,11,22.10
2020,08,17,07,12,22.10
2020,08,17,07,13,22.00
2020,08,17,07,14,22.00
2020,08,17,07,15,22.00
2020,08,17,07,16,22.00
2020,08,17,07,17,22.00
2020,08,17,07,18,22.00
2020,08,17,07,19,22.00
2020,08,17,07,20,22.00
2020,08,17,07,21,22.00
2020,08,17,07,22,22.00
2020,08,17,07,23,22.00
2020,08,17,07,24,22.00
2020,08,17,07,25,22.00
2020,08,17,07,26,22.00
2020,08,17,07,27,22.00
2020,08,17,07,28,22.00
2020,08,17,07,29,22.00
2020,08,17,07,30,22.00
2020,08,17,07,31,22.10
2020,08,17,07,32,22.10
2020,08,17,07,33,22.10
2020,08,17,07,34,22.20
2020,08,17,07,35,22.20
2020,08,17,07,36,22.30
2020,08,17,07,37,22.30
2020,08,17,07,38,22.40
2020,08,17,07,39,22.40
2020,08,17,07,40,22.50
2020,08,17,07,41,22.60
2020,08,17,07,42,22.70
2020,08,17,07,43,22.70
2020,08,17,07,44,22.80
2020,08,17,07,45,22.90
2020,08,17,07,46,22.90
2020,08,17,07,47,22.90
2020,08,17,07,48,22.90
2020,08,17,07,49,23.00
2020,08,17,07,50,23.10
2020,08,17,07,51,23.10
2020,08,17,07,52,23.10
2020,08,17,07,53,23.20
2020,08,17,07,54,23.20
2020,08,17,07,55,23.20
2020,08,17,07,56,23.20
2020,08,17,07,57,23.20
2020,08,17,07,58,23.20
2020,08,17,07,59,23.20
2020,08,17,08,00,23.20
2020,08,17,08,01,23.20
2020,08,17,08,02,23.20
2020,08,17,08,03,23.20
2020,08,17,08,04,23.20
2020,08,17,08,05,23.20
2020,08,17,08,06,23.20
2020,08,17,08,07,23.20
2020,08,17,08,08,23.20
2020,08,17,08,09,23.20
2020,08,17,08,10,23.20
2020,08,17,08,11,23.30
2020,08,17,08,12,23.30
2020,08,17,08,13,23.20
2020,08,17,08,14,23.20
2020,08,17,08,15,23.20
2020,08,17,08,16,23.10
2020,08,17,08,17,23.10
2020,08,17,08,18,23.10
2020,08,17,08,19,23.00
2020,08,17,08,20,22.90
2020,08,17,08,21,22.90
2020,08,17,08,22,22.90
2020,08,17,08,23,22.90
2020,08,17,08,24,22.80
2020,08,17,08,25,22.80
2020,08,17,08,26,22.70
2020,08,17,08,27,22.70
2020,08,17,08,28,22.80
2020,08,17,08,29,22.80
2020,08,17,08,30,22.80
2020,08,17,08,31,22.80
2020,08,17,08,32,22.80
2020,08,17,08,33,22.80
2020,08,17,08,34,22.80
2020,08,17,08,35,22.80
2020,08,17,08,36,22.80
2020,08,17,08,37,22.90
2020,08,17,08,38,22.90
2020,08,17,08,39,22.90
2020,08,17,08,40,23.00
2020,08,17,08,41,23.10
2020,08,17,08,42,23.10
2020,08,17,08,43,23.20
2020,08,17,08,44,23.20
2020,08,17,08,45,23.30
2020,08,17,08,46,23.30
2020,08,17,08,47,23.30
2020,08,17,08,48,23.20
2020,08,17,08,49,23.20
2020,08,17,08,50,23.20
2020,08,17,08,51,23.20
2020,08,17,08,52,23.20
2020,08,17,08,53,23.20
2020,08,17,08,54,23.20
2020,08,17,08,55,23.20
2020,08,17,08,56,23.20
2020,08,17,08,57,23.20
2020,08,17,08,58,23.10
2020,08,17,08,59,23.10
2020,08,17,09,00,23.00
2020,08,17,09,01,22.90
2020,08,17,09,02,22.90
2020,08,17,09,03,22.90
2020,08,17,09,04,22.90
2020,08,17,09,05,22.90
2020,08,17,09,06,22.90
2020,08,17,09,07,22.90
2020,08,17,09,08,22.90
2020,08,17,09,09,22.90
2020,08,17,09,10,22.90
2020,08,17,09,11,22.90
2020,08,17,09,12,22.90
2020,08,17,09,13,22.90
2020,08,17,09,14,22.90
2020,08,17,09,15,22.90
2020,08,17,09,16,22.90
2020,08,17,09,17,22.90
2020,08,17,09,18,22.90
2020,08,17,09,19,22.90
2020,08,17,09,20,23.00
2020,08,17,09,21,23.10
2020,08,17,09,22,23.10
2020,08,17,09,23,23.10
2020,08,17,09,24,23.10
2020,08,17,09,25,23.10
2020,08,17,09,26,23.20
2020,08,17,09,27,23.30
2020,08,17,09,28,23.30
2020,08,17,09,29,23.30
2020,08,17,09,30,23.30
2020,08,17,09,31,23.30
2020,08,17,09,32,23.30
2020,08,17,09,33,23.30
2020,08,17,09,34,23.40
2020,08,17,09,35,23.40
2020,08,17,09,36,23.50
2020,08,17,09,37,23.60
2020,08,17,09,38,23.60
2020,08,17,09,39,23.60
2020,08,17,09,40,23.70
2020,08,17,09,41,23.70
2020,08,17,09,42,23.70
2020,08,17,09,43,23.70
2020,08,17,09,44,23.70
2020,08,17,09,45,23.80
2020,08,17,09,46,23.80
2020,08,17,09,47,23.90
2020,08,17,09,48,24.00
2020,08,17,09,49,24.10
2020,08,17,09,50,24.10
2020,08,17,09,51,23.90
2020,08,17,09,52,24.00
2020,08,17,09,53,23.90
2020,08,17,09,54,23.90
2020,08,17,09,55,23.90
2020,08,17,09,56,23.90
2020,08,17,09,57,23.90
2020,08,17,09,58,23.90
2020,08,17,09,59,24.00
2020,08,17,10,00,24.10
2020,08,17,10,01,24.10
2020,08,17,10,02,24.10
2020,08,17,10,03,24.20
2020,08,17,10,04,24.30
2020,08,17,10,05,24.30
2020,08,17,10,06,24.40
2020,08,17,10,07,24.40
2020,08,17,10,08,24.40
2020,08,17,10,09,24.40
2020,08,17,10,10,24.50
2020,08,17,10,11,24.50
2020,08,17,10,12,24.60
2020,08,17,10,13,24.70
2020,08,17,10,14,24.80
2020,08,17,10,15,24.90
2020,08,17,10,16,24.90
2020,08,17,10,17,25.10
2020,08,17,10,18,25.20
2020,08,17,10,19,25.20
2020,08,17,10,20,25.20
2020,08,17,10,21,25.20
2020,08,17,10,22,25.20
2020,08,17,10,23,25.20
2020,08,17,10,24,25.20
2020,08,17,10,25,25.20
2020,08,17,10,26,25.20
2020,08,17,10,27,25.30
2020,08,17,10,28,25.40
2020,08,17,10,29,25.50
2020,08,17,10,30,25.50
2020,08,17,10,31,25.50
2020,08,17,10,32,25.50
2020,08,17,10,33,25.50
2020,08,17,10,34,25.50
2020,08,17,10,35,25.40
2020,08,17,10,36,25.40
2020,08,17,10,37,25.40
2020,08,17,10,38,25.30
2020,08,17,10,39,25.30
2020,08,17,10,40,25.30
2020,08,17,10,41,25.20
2020,08,17,10,42,25.20
2020,08,17,10,43,25.20
2020,08,17,10,44,25.20
2020,08,17,10,45,25.20
2020,08,17,10,46,25.30
2020,08,17,10,47,25.30
2020,08,17,10,48,25.30
2020,08,17,10,49,25.40
2020,08,17,10,50,25.50
2020,08,17,10,51,25.50
2020,08,17,10,52,25.50
2020,08,17,10,53,25.60
2020,08,17,10,54,25.60
2020,08,17,10,55,25.60
2020,08,17,10,56,25.70
2020,08,17,10,57,25.70
2020,08,17,10,58,25.70
2020,08,17,10,59,25.70
2020,08,17,11,00,25.80
2020,08,17,11,01,25.80
2020,08,17,11,02,25.80
2020,08,17,11,03,25.80
2020,08,17,11,04,25.80
2020,08,17,11,05,25.80
2020,08,17,11,06,25.70
2020,08,17,11,07,25.70
2020,08,17,11,08,25.70
2020,08,17,11,09,25.70
2020,08,17,11,10,25.70
2020,08,17,11,11,25.60
2020,08,17,11,12,25.70
2020,08,17,11,13,25.70
2020,08,17,11,14,25.70
2020,08,17,11,15,25.70
2020,08,17,11,16,25.80
2020,08,17,11,17,25.80
2020,08,17,11,18,25.90
2020,08,17,11,19,25.90
2020,08,17,11,20,25.90
2020,08,17,11,21,25.90
2020,08,17,11,22,26.10
2020,08,17,11,23,26.10
2020,08,17,11,24,26.20
2020,08,17,11,25,26.20
2020,08,17,11,26,26.40
2020,08,17,11,27,26.40
2020,08,17,11,28,26.40
2020,08,17,11,29,26.30
2020,08,17,11,30,26.30
2020,08,17,11,31,26.30
2020,08,17,11,32,26.20
2020,08,17,11,33,26.30
2020,08,17,11,34,26.20
2020,08,17,11,35,26.20
2020,08,17,11,36,26.20
2020,08,17,11,37,26.20
2020,08,17,11,38,26.20
2020,08,17,11,39,26.10
2020,08,17,11,40,26.10
2020,08,17,11,41,26.10
2020,08,17,11,42,26.00
2020,08,17,11,43,26.00
2020,08,17,11,44,25.90
2020,08,17,11,45,25.90
2020,08,17,11,46,25.90
2020,08,17,11,47,26.00
2020,08,17,11,48,26.20
2020,08,17,11,49,26.20
2020,08,17,11,50,26.20
2020,08,17,11,51,26.30
2020,08,17,11,52,26.40
2020,08,17,11,53,26.40
2020,08,17,11,54,26.40
2020,08,17,11,55,26.40
2020,08,17,11,56,26.60
2020,08,17,11,57,26.60
2020,08,17,11,58,26.60
2020,08,17,11,59,26.60
2020,08,17,12,00,26.60
2020,08,17,12,01,26.70
2020,08,17,12,02,26.80
2020,08,17,12,03,26.90
2020,08,17,12,04,27.00
2020,08,17,12,05,27.10
2020,08,17,12,06,27.00
2020,08,17,12,07,26.90
2020,08,17,12,08,26.80
2020,08,17,12,09,26.80
2020,08,17,12,10,26.90
2020,08,17,12,11,26.90
2020,08,17,12,12,26.70
2020,08,17,12,13,26.60
2020,08,17,12,14,26.60
2020,08,17,12,15,26.50
2020,08,17,12,16,26.50
2020,08,17,12,17,26.60
2020,08,17,12,18,26.70
2020,08,17,12,19,26.90
2020,08,17,12,20,27.10
2020,08,17,12,21,27.30
2020,08,17,12,22,27.30
2020,08,17,12,23,27.30
2020,08,17,12,24,27.30
2020,08,17,12,25,27.30
2020,08,17,12,26,27.30
2020,08,17,12,27,27.30
2020,08,17,12,28,27.30
2020,08,17,12,29,27.40
2020,08,17,12,30,27.40
2020,08,17,12,31,27.40
2020,08,17,12,32,27.40
2020,08,17,12,33,27.40
2020,08,17,12,34,27.60
2020,08,17,12,35,27.70
2020,08,17,12,36,27.80
2020,08,17,12,37,27.80
2020,08,17,12,38,27.70
2020,08,17,12,39,27.50
2020,08,17,12,40,27.30
2020,08,17,12,41,27.30
2020,08,17,12,42,27.30
2020,08,17,12,43,27.30
2020,08,17,12,44,27.30
2020,08,17,12,45,27.30
2020,08,17,12,46,27.20
2020,08,17,12,47,27.20
2020,08,17,12,48,27.20
2020,08,17,12,49,27.20
2020,08,17,12,50,27.20
2020,08,17,12,51,27.20
2020,08,17,12,52,27.20
2020,08,17,12,53,27.20
2020,08,17,12,54,27.20
2020,08,17,12,55,27.30
2020,08,17,12,56,27.30
2020,08,17,12,57,27.30
2020,08,17,12,58,27.30
2020,08,17,12,59,27.30
2020,08,17,13,00,27.30
2020,08,17,13,01,27.30
2020,08,17,13,02,27.20
2020,08,17,13,03,27.20
2020,08,17,13,04,27.20
2020,08,17,13,05,27.30
2020,08,17,13,06,27.40
2020,08,17,13,07,27.40
2020,08,17,13,08,27.40
2020,08,17,13,09,27.60
2020,08,17,13,10,27.60
2020,08,17,13,11,27.70
2020,08,17,13,12,27.70
2020,08,17,13,13,27.80
2020,08,17,13,14,27.60
2020,08,17,13,15,27.60
2020,08,17,13,16,27.40
2020,08,17,13,17,27.50
2020,08,17,13,18,27.60
2020,08,17,13,19,27.70
2020,08,17,13,20,27.80
2020,08,17,13,21,27.70
2020,08,17,13,22,27.50
2020,08,17,13,23,27.40
2020,08,17,13,24,27.40
2020,08,17,13,25,27.30
2020,08,17,13,26,27.30
2020,08,17,13,27,27.30
2020,08,17,13,28,27.30
2020,08,17,13,29,27.30
2020,08,17,13,30,27.30
2020,08,17,13,31,27.30
2020,08,17,13,32,27.30
2020,08,17,13,33,27.30
2020,08,17,13,34,27.30
2020,08,17,13,35,27.30
2020,08,17,13,36,27.30
2020,08,17,13,37,27.30
2020,08,17,13,38,27.30
2020,08,17,13,39,27.30
2020,08,17,13,40,27.30
2020,08,17,13,41,27.30
2020,08,17,13,42,27.30
2020,08,17,13,43,27.30
2020,08,17,13,44,27.20
2020,08,17,13,45,27.20
2020,08,17,13,46,27.20
2020,08,17,13,47,27.30
2020,08,17,13,48,27.30
2020,08,17,13,49,27.30
2020,08,17,13,50,27.30
2020,08,17,13,51,27.30
2020,08,17,13,52,27.20
2020,08,17,13,53,27.10
2020,08,17,13,54,27.10
2020,08,17,13,55,27.10
2020,08,17,13,56,27.10
2020,08,17,13,57,27.10
2020,08,17,13,58,27.20
2020,08,17,13,59,27.20
2020,08,17,14,00,27.20
2020,08,17,14,01,27.30
2020,08,17,14,02,27.30
2020,08,17,14,03,27.30
2020,08,17,14,04,27.30
2020,08,17,14,05,27.30
2020,08,17,14,06,27.30
2020,08,17,14,07,27.30
2020,08,17,14,08,27.30
2020,08,17,14,09,27.30
2020,08,17,14,10,27.30
2020,08,17,14,11,27.30
2020,08,17,14,12,27.30
2020,08,17,14,13,27.30
2020,08,17,14,14,27.40
2020,08,17,14,15,27.40
2020,08,17,14,16,27.40
2020,08,17,14,17,27.40
2020,08,17,14,18,27.40
2020,08,17,14,19,27.60
2020,08,17,14,20,27.60
2020,08,17,14,21,27.60
2020,08,17,14,22,27.60
2020,08,17,14,23,27.60
2020,08,17,14,24,27.60
2020,08,17,14,25,27.50
2020,08,17,14,26,27.40
2020,08,17,14,27,27.50
2020,08,17,14,28,27.60
2020,08,17,14,29,27.60
2020,08,17,14,30,27.60
2020,08,17,14,31,27.70
2020,08,17,14,32,27.70
2020,08,17,14,33,27.80
2020,08,17,14,34,27.80
2020,08,17,14,35,27.80
2020,08,17,14,36,27.90
2020,08,17,14,37,27.80
2020,08,17,14,38,27.70
2020,08,17,14,39,27.70
2020,08,17,14,40,27.70
2020,08,17,14,41,27.70
2020,08,17,14,42,27.70
2020,08,17,14,43,27.80
2020,08,17,14,44,27.90
2020,08,17,14,45,28.00
2020,08,17,14,46,28.10
2020,08,17,14,47,28.20
2020,08,17,14,48,28.30
2020,08,17,14,49,28.30
2020,08,17,14,50,28.30
2020,08,17,14,51,28.20
2020,08,17,14,52,28.10
2020,08,17,14,53,27.90
2020,08,17,14,54,27.90
2020,08,17,14,55,27.80
2020,08,17,14,56,27.90
2020,08,17,14,57,27.90
2020,08,17,14,58,27.90
2020,08,17,14,59,27.80
2020,08,17,15,00,27.80
2020,08,17,15,01,27.90
2020,08,17,15,02,28.00
2020,08,17,15,03,28.00
2020,08,17,15,04,28.00
2020,08,17,15,05,27.90
2020,08,17,15,06,27.90
2020,08,17,15,07,27.90
2020,08,17,15,08,28.00
2020,08,17,15,09,28.00
2020,08,17,15,10,28.00
2020,08,17,15,11,27.90
2020,08,17,15,12,27.90
2020,08,17,15,13,27.90
2020,08,17,15,14,27.90
2020,08,17,15,15,27.80
2020,08,17,15,16,27.80
2020,08,17,15,17,27.80
2020,08,17,15,18,27.80
2020,08,17,15,19,27.90
2020,08,17,15,20,27.90
2020,08,17,15,21,27.90
2020,08,17,15,22,27.80
2020,08,17,15,23,27.80
2020,08,17,15,24,27.60
2020,08,17,15,25,27.60
2020,08,17,15,26,27.70
2020,08,17,15,27,27.80
2020,08,17,15,28,27.80
2020,08,17,15,29,27.70
2020,08,17,15,30,27.60
2020,08,17,15,31,27.50
2020,08,17,15,32,27.50
2020,08,17,15,33,27.60
2020,08,17,15,34,27.60
2020,08,17,15,35,27.60
2020,08,17,15,36,27.60
2020,08,17,15,37,27.60
2020,08,17,15,38,27.70
2020,08,17,15,39,27.80
2020,08,17,15,40,27.80
2020,08,17,15,41,27.80
2020,08,17,15,42,27.70
2020,08,17,15,43,27.60
2020,08,17,15,44,27.60
2020,08,17,15,45,27.60
2020,08,17,15,46,27.60
2020,08,17,15,47,27.70
2020,08,17,15,48,27.70
2020,08,17,15,49,27.70
2020,08,17,15,50,27.70
2020,08,17,15,51,27.70
2020,08,17,15,52,27.70
2020,08,17,15,53,27.70
2020,08,17,15,54,27.60
2020,08,17,15,55,27.60
2020,08,17,15,56,27.60
2020,08,17,15,57,27.70
2020,08,17,15,58,27.80
2020,08,17,15,59,27.80
2020,08,17,16,00,27.90
2020,08,17,16,01,27.90
2020,08,17,16,02,27.90
2020,08,17,16,03,27.90
2020,08,17,16,04,27.80
2020,08,17,16,05,27.80
2020,08,17,16,06,27.70
2020,08,17,16,07,27.70
2020,08,17,16,08,27.80
2020,08,17,16,09,27.80
2020,08,17,16,10,27.80
2020,08,17,16,11,27.80
2020,08,17,16,12,27.70
2020,08,17,16,13,27.70
2020,08,17,16,14,27.70
2020,08,17,16,15,27.70
2020,08,17,16,16,27.70
2020,08,17,16,17,27.70
2020,08,17,16,18,27.80
2020,08,17,16,19,27.90
2020,08,17,16,20,27.90
2020,08,17,16,21,28.00
2020,08,17,16,22,28.00
2020,08,17,16,23,27.90
2020,08,17,16,24,27.90
2020,08,17,16,25,27.80
2020,08,17,16,26,27.90
2020,08,17,16,27,27.90
2020,08,17,16,28,27.80
2020,08,17,16,29,27.80
2020,08,17,16,30,27.70
2020,08,17,16,31,27.70
2020,08,17,16,32,27.60
2020,08,17,16,33,27.60
2020,08,17,16,34,27.60
2020,08,17,16,35,27.70
2020,08,17,16,36,27.70
2020,08,17,16,37,27.70
2020,08,17,16,38,27.80
2020,08,17,16,39,27.80
2020,08,17,16,40,27.80
2020,08,17,16,41,27.80
2020,08,17,16,42,27.70
2020,08,17,16,43,27.70
2020,08,17,16,44,27.70
2020,08,17,16,45,27.60
2020,08,17,16,46,27.70
2020,08,17,16,47,27.70
2020,08,17,16,48,27.80
2020,08,17,16,49,27.80
2020,08,17,16,50,27.80
2020,08,17,16,51,27.70
2020,08,17,16,52,27.60
2020,08,17,16,53,27.50
2020,08,17,16,54,27.40
2020,08,17,16,55,27.30
2020,08,17,16,56,27.20
2020,08,17,16,57,27.20
2020,08,17,16,58,27.20
2020,08,17,16,59,27.20
2020,08,17,17,00,27.20
2020,08,17,17,01,27.20
2020,08,17,17,02,27.20
2020,08,17,17,03,27.20
2020,08,17,17,04,27.20
2020,08,17,17,05,27.30
2020,08,17,17,06,27.30
2020,08,17,17,07,27.30
2020,08,17,17,08,27.30
2020,08,17,17,09,27.30
2020,08,17,17,10,27.20
2020,08,17,17,11,27.10
2020,08,17,17,12,27.00
2020,08,17,17,13,26.90
2020,08,17,17,14,26.80
2020,08,17,17,15,26.80
2020,08,17,17,16,26.70
2020,08,17,17,17,26.70
2020,08,17,17,18,26.70
2020,08,17,17,19,26.70